Year,Month,Day,Hour,Minute,Value (Times are PST for temperature in C)
2015,06,27,00,00,18.70
2015,06,27,00,01,18.70
2015,06,27,00,02,18.70
2015,06,27,00,03,18.60
2015,06,27,00,04,18.60
2015,06,27,00,05,18.60
2015,06,27,00,06,18.60
2015,06,27,00,07,18.60
2015,06,27,00,08,18.60
2015,06,27,00,09,18.60
2015,06,27,00,10,18.60
2015,06,27,00,11,18.50
2015,06,27,00,12,18.50
2015,06,27,00,13,18.50
2015,06,27,00,14,18.40
2015,06,27,00,15,18.40
2015,06,27,00,16,18.40
2015,06,27,00,17,18.40
2015,06,27,00,18,18.40
2015,06,27,00,19,18.30
2015,06,27,00,20,18.30
2015,06,27,00,21,18.30
2015,06,27,00,22,18.30
2015,06,27,00,23,18.30
2015,06,27,00,24,18.30
2015,06,27,00,25,18.30
2015,06,27,00,26,18.30
2015,06,27,00,27,18.20
2015,06,27,00,28,18.20
2015,06,27,00,29,18.20
2015,06,27,00,30,18.20
2015,06,27,00,31,18.20
2015,06,27,00,32,18.20
2015,06,27,00,33,18.20
2015,06,27,00,34,18.20
2015,06,27,00,35,18.20
2015,06,27,00,36,18.20
2015,06,27,00,37,18.20
2015,06,27,00,38,18.20
2015,06,27,00,39,18.20
2015,06,27,00,40,18.20
2015,06,27,00,41,18.20
2015,06,27,00,42,18.20
2015,06,27,00,43,18.20
2015,06,27,00,44,18.20
2015,06,27,00,45,18.20
2015,06,27,00,46,18.20
2015,06,27,00,47,18.20
2015,06,27,00,48,18.20
2015,06,27,00,49,18.20
2015,06,27,00,50,18.20
2015,06,27,00,51,18.20
2015,06,27,00,52,18.20
2015,06,27,00,53,18.20
2015,06,27,00,54,18.20
2015,06,27,00,55,18.20
2015,06,27,00,56,18.20
2015,06,27,00,57,18.20
2015,06,27,00,58,18.20
2015,06,27,00,59,18.20
2015,06,27,01,00,18.20
2015,06,27,01,01,18.20
2015,06,27,01,02,18.20
2015,06,27,01,03,18.20
2015,06,27,01,04,18.20
2015,06,27,01,05,18.20
2015,06,27,01,06,18.20
2015,06,27,01,07,18.20
2015,06,27,01,08,18.20
2015,06,27,01,09,18.20
2015,06,27,01,10,18.20
2015,06,27,01,11,18.10
2015,06,27,01,12,18.10
2015,06,27,01,13,18.10
2015,06,27,01,14,18.10
2015,06,27,01,15,18.10
2015,06,27,01,16,18.10
2015,06,27,01,17,18.10
2015,06,27,01,18,18.10
2015,06,27,01,19,18.10
2015,06,27,01,20,18.10
2015,06,27,01,21,18.10
2015,06,27,01,22,18.10
2015,06,27,01,23,18.10
2015,06,27,01,24,18.10
2015,06,27,01,25,18.10
2015,06,27,01,26,18.00
2015,06,27,01,27,18.00
2015,06,27,01,28,18.00
2015,06,27,01,29,18.00
2015,06,27,01,30,18.00
2015,06,27,01,31,18.00
2015,06,27,01,32,18.00
2015,06,27,01,33,17.90
2015,06,27,01,34,17.90
2015,06,27,01,35,18.00
2015,06,27,01,36,17.90
2015,06,27,01,37,17.90
2015,06,27,01,38,17.90
2015,06,27,01,39,17.90
2015,06,27,01,40,17.90
2015,06,27,01,41,17.90
2015,06,27,01,42,17.90
2015,06,27,01,43,17.90
2015,06,27,01,44,17.90
2015,06,27,01,45,17.90
2015,06,27,01,46,17.90
2015,06,27,01,47,17.90
2015,06,27,01,48,17.90
2015,06,27,01,49,17.90
2015,06,27,01,50,17.80
2015,06,27,01,51,17.80
2015,06,27,01,52,17.80
2015,06,27,01,53,17.80
2015,06,27,01,54,17.80
2015,06,27,01,55,17.80
2015,06,27,01,56,17.80
2015,06,27,01,57,17.80
2015,06,27,01,58,17.80
2015,06,27,01,59,17.80
2015,06,27,02,00,17.80
2015,06,27,02,01,17.80
2015,06,27,02,02,17.80
2015,06,27,02,03,17.80
2015,06,27,02,04,17.70
2015,06,27,02,05,17.70
2015,06,27,02,06,17.70
2015,06,27,02,07,17.70
2015,06,27,02,08,17.70
2015,06,27,02,09,17.70
2015,06,27,02,10,17.70
2015,06,27,02,11,17.70
2015,06,27,02,12,17.70
2015,06,27,02,13,17.60
2015,06,27,02,14,17.60
2015,06,27,02,15,17.60
2015,06,27,02,16,17.60
2015,06,27,02,17,17.60
2015,06,27,02,18,17.60
2015,06,27,02,19,17.60
2015,06,27,02,20,17.60
2015,06,27,02,21,17.50
2015,06,27,02,22,17.50
2015,06,27,02,23,17.50
2015,06,27,02,24,17.50
2015,06,27,02,25,17.50
2015,06,27,02,26,17.40
2015,06,27,02,27,17.40
2015,06,27,02,28,17.40
2015,06,27,02,29,17.40
2015,06,27,02,30,17.40
2015,06,27,02,31,17.40
2015,06,27,02,32,17.40
2015,06,27,02,33,17.30
2015,06,27,02,34,17.30
2015,06,27,02,35,17.30
2015,06,27,02,36,17.30
2015,06,27,02,37,17.30
2015,06,27,02,38,17.30
2015,06,27,02,39,17.30
2015,06,27,02,40,17.30
2015,06,27,02,41,17.20
2015,06,27,02,42,17.20
2015,06,27,02,43,17.20
2015,06,27,02,44,17.20
2015,06,27,02,45,17.20
2015,06,27,02,46,17.20
2015,06,27,02,47,17.20
2015,06,27,02,48,17.20
2015,06,27,02,49,17.20
2015,06,27,02,50,17.10
2015,06,27,02,51,17.10
2015,06,27,02,52,17.10
2015,06,27,02,53,17.10
2015,06,27,02,54,17.10
2015,06,27,02,55,17.10
2015,06,27,02,56,17.10
2015,06,27,02,57,17.10
2015,06,27,02,58,17.10
2015,06,27,02,59,17.10
2015,06,27,03,00,17.00
2015,06,27,03,01,17.00
2015,06,27,03,02,17.00
2015,06,27,03,03,17.00
2015,06,27,03,04,17.00
2015,06,27,03,05,17.00
2015,06,27,03,06,17.00
2015,06,27,03,07,17.00
2015,06,27,03,08,17.00
2015,06,27,03,09,17.00
2015,06,27,03,10,17.00
2015,06,27,03,11,17.10
2015,06,27,03,12,17.10
2015,06,27,03,13,17.00
2015,06,27,03,14,17.00
2015,06,27,03,15,17.00
2015,06,27,03,16,17.00
2015,06,27,03,17,17.00
2015,06,27,03,18,17.00
2015,06,27,03,19,17.00
2015,06,27,03,20,17.00
2015,06,27,03,21,17.00
2015,06,27,03,22,17.00
2015,06,27,03,23,17.00
2015,06,27,03,24,17.00
2015,06,27,03,25,16.90
2015,06,27,03,26,16.90
2015,06,27,03,27,16.90
2015,06,27,03,28,16.90
2015,06,27,03,29,16.90
2015,06,27,03,30,16.90
2015,06,27,03,31,16.90
2015,06,27,03,32,16.90
2015,06,27,03,33,16.90
2015,06,27,03,34,16.90
2015,06,27,03,35,16.90
2015,06,27,03,36,16.90
2015,06,27,03,37,16.90
2015,06,27,03,38,16.90
2015,06,27,03,39,16.80
2015,06,27,03,40,16.80
2015,06,27,03,41,16.80
2015,06,27,03,42,16.80
2015,06,27,03,43,16.80
2015,06,27,03,44,16.80
2015,06,27,03,45,16.80
2015,06,27,03,49,16.70
2015,06,27,03,50,16.70
2015,06,27,03,51,16.70
2015,06,27,03,52,16.70
2015,06,27,03,53,16.60
2015,06,27,03,54,16.60
2015,06,27,03,55,16.60
2015,06,27,03,56,16.60
2015,06,27,03,57,16.60
2015,06,27,03,58,16.50
2015,06,27,03,59,16.50
2015,06,27,04,00,16.50
2015,06,27,04,01,16.50
2015,06,27,04,02,16.40
2015,06,27,04,03,16.40
2015,06,27,04,04,16.40
2015,06,27,04,05,16.40
2015,06,27,04,06,16.40
2015,06,27,04,07,16.40
2015,06,27,04,08,16.40
2015,06,27,04,09,16.40
2015,06,27,04,10,16.30
2015,06,27,04,11,16.30
2015,06,27,04,12,16.30
2015,06,27,04,13,16.30
2015,06,27,04,14,16.20
2015,06,27,04,15,16.20
2015,06,27,04,16,16.20
2015,06,27,04,17,16.10
2015,06,27,04,18,16.10
2015,06,27,04,19,16.10
2015,06,27,04,20,16.10
2015,06,27,04,21,16.10
2015,06,27,04,22,16.10
2015,06,27,04,23,16.10
2015,06,27,04,24,16.10
2015,06,27,04,25,16.10
2015,06,27,04,26,16.10
2015,06,27,04,27,16.10
2015,06,27,04,28,16.10
2015,06,27,04,29,16.10
2015,06,27,04,30,16.10
2015,06,27,04,31,16.10
2015,06,27,04,32,16.10
2015,06,27,04,33,16.10
2015,06,27,04,34,16.10
2015,06,27,04,35,16.00
2015,06,27,04,36,16.00
2015,06,27,04,37,16.00
2015,06,27,04,38,16.00
2015,06,27,04,39,16.00
2015,06,27,04,40,16.00
2015,06,27,04,41,15.90
2015,06,27,04,42,15.90
2015,06,27,04,43,15.90
2015,06,27,04,44,15.90
2015,06,27,04,45,15.90
2015,06,27,04,46,15.90
2015,06,27,04,47,15.90
2015,06,27,04,48,15.90
2015,06,27,04,49,15.90
2015,06,27,04,50,15.80
2015,06,27,04,51,15.80
2015,06,27,04,52,15.80
2015,06,27,04,53,15.80
2015,06,27,04,54,15.80
2015,06,27,04,55,15.80
2015,06,27,04,56,15.80
2015,06,27,04,57,15.80
2015,06,27,04,58,15.80
2015,06,27,04,59,15.80
2015,06,27,05,00,15.70
2015,06,27,05,01,15.70
2015,06,27,05,02,15.70
2015,06,27,05,03,15.70
2015,06,27,05,04,15.70
2015,06,27,05,05,15.70
2015,06,27,05,06,15.70
2015,06,27,05,07,15.70
2015,06,27,05,08,15.70
2015,06,27,05,09,15.70
2015,06,27,05,10,15.70
2015,06,27,05,11,15.70
2015,06,27,05,12,15.70
2015,06,27,05,13,15.70
2015,06,27,05,14,15.70
2015,06,27,05,15,15.70
2015,06,27,05,16,15.70
2015,06,27,05,17,15.70
2015,06,27,05,18,15.60
2015,06,27,05,19,15.60
2015,06,27,05,20,15.60
2015,06,27,05,21,15.60
2015,06,27,05,22,15.60
2015,06,27,05,23,15.60
2015,06,27,05,24,15.60
2015,06,27,05,25,15.60
2015,06,27,05,26,15.60
2015,06,27,05,27,15.60
2015,06,27,05,28,15.60
2015,06,27,05,29,15.60
2015,06,27,05,30,15.60
2015,06,27,05,31,15.60
2015,06,27,05,32,15.60
2015,06,27,05,33,15.60
2015,06,27,05,34,15.60
2015,06,27,05,35,15.60
2015,06,27,05,36,15.60
2015,06,27,05,37,15.60
2015,06,27,05,38,15.60
2015,06,27,05,39,15.60
2015,06,27,05,40,15.60
2015,06,27,05,41,15.60
2015,06,27,05,42,15.60
2015,06,27,05,43,15.60
2015,06,27,05,44,15.50
2015,06,27,05,45,15.60
2015,06,27,05,46,15.50
2015,06,27,05,47,15.50
2015,06,27,05,48,15.50
2015,06,27,05,49,15.50
2015,06,27,05,50,15.50
2015,06,27,05,51,15.50
2015,06,27,05,52,15.50
2015,06,27,05,53,15.50
2015,06,27,05,54,15.50
2015,06,27,05,55,15.50
2015,06,27,05,56,15.50
2015,06,27,05,57,15.50
2015,06,27,05,58,15.40
2015,06,27,05,59,15.40
2015,06,27,06,00,15.50
2015,06,27,06,01,15.50
2015,06,27,06,02,15.50
2015,06,27,06,03,15.50
2015,06,27,06,04,15.50
2015,06,27,06,05,15.50
2015,06,27,06,06,15.50
2015,06,27,06,07,15.60
2015,06,27,06,08,15.60
2015,06,27,06,09,15.60
2015,06,27,06,10,15.60
2015,06,27,06,11,15.70
2015,06,27,06,12,15.70
2015,06,27,06,13,15.70
2015,06,27,06,14,15.70
2015,06,27,06,15,15.80
2015,06,27,06,16,15.80
2015,06,27,06,17,15.80
2015,06,27,06,18,15.80
2015,06,27,06,19,15.90
2015,06,27,06,20,15.90
2015,06,27,06,21,16.00
2015,06,27,06,22,16.10
2015,06,27,06,23,16.10
2015,06,27,06,24,16.10
2015,06,27,06,25,16.10
2015,06,27,06,26,16.10
2015,06,27,06,27,16.10
2015,06,27,06,28,16.20
2015,06,27,06,29,16.20
2015,06,27,06,30,16.20
2015,06,27,06,31,16.20
2015,06,27,06,32,16.30
2015,06,27,06,33,16.30
2015,06,27,06,34,16.30
2015,06,27,06,35,16.40
2015,06,27,06,36,16.40
2015,06,27,06,37,16.40
2015,06,27,06,38,16.40
2015,06,27,06,39,16.40
2015,06,27,06,40,16.40
2015,06,27,06,41,16.40
2015,06,27,06,42,16.40
2015,06,27,06,43,16.40
2015,06,27,06,44,16.40
2015,06,27,06,45,16.40
2015,06,27,06,46,16.40
2015,06,27,06,47,16.40
2015,06,27,06,48,16.50
2015,06,27,06,49,16.50
2015,06,27,06,50,16.60
2015,06,27,06,51,16.60
2015,06,27,06,52,16.70
2015,06,27,06,53,16.70
2015,06,27,06,54,16.80
2015,06,27,06,55,16.80
2015,06,27,06,56,16.90
2015,06,27,06,57,16.90
2015,06,27,06,58,17.00
2015,06,27,06,59,17.00
2015,06,27,07,00,17.10
2015,06,27,07,01,17.10
2015,06,27,07,02,17.20
2015,06,27,07,03,17.30
2015,06,27,07,04,17.30
2015,06,27,07,05,17.40
2015,06,27,07,06,17.50
2015,06,27,07,07,17.60
2015,06,27,07,08,17.60
2015,06,27,07,09,17.70
2015,06,27,07,10,17.70
2015,06,27,07,11,17.70
2015,06,27,07,12,17.80
2015,06,27,07,13,17.80
2015,06,27,07,14,17.80
2015,06,27,07,15,17.90
2015,06,27,07,16,18.00
2015,06,27,07,17,18.00
2015,06,27,07,18,18.10
2015,06,27,07,19,18.10
2015,06,27,07,20,18.20
2015,06,27,07,21,18.30
2015,06,27,07,22,18.40
2015,06,27,07,23,18.40
2015,06,27,07,24,18.50
2015,06,27,07,25,18.60
2015,06,27,07,26,18.70
2015,06,27,07,27,18.80
2015,06,27,07,28,18.90
2015,06,27,07,29,19.00
2015,06,27,07,30,19.10
2015,06,27,07,31,19.30
2015,06,27,07,32,19.50
2015,06,27,07,33,19.60
2015,06,27,07,34,19.80
2015,06,27,07,35,19.90
2015,06,27,07,36,20.00
2015,06,27,07,37,20.20
2015,06,27,07,38,20.30
2015,06,27,07,39,20.40
2015,06,27,07,40,20.40
2015,06,27,07,41,20.60
2015,06,27,07,42,20.60
2015,06,27,07,43,20.70
2015,06,27,07,44,20.70
2015,06,27,07,45,20.80
2015,06,27,07,46,20.90
2015,06,27,07,47,21.00
2015,06,27,07,48,21.10
2015,06,27,07,49,21.20
2015,06,27,07,50,21.30
2015,06,27,07,51,21.40
2015,06,27,07,52,21.40
2015,06,27,07,53,21.50
2015,06,27,07,54,21.60
2015,06,27,07,55,21.70
2015,06,27,07,56,21.80
2015,06,27,07,57,21.80
2015,06,27,07,58,21.90
2015,06,27,07,59,22.00
2015,06,27,08,00,22.00
2015,06,27,08,01,22.10
2015,06,27,08,02,22.20
2015,06,27,08,03,22.20
2015,06,27,08,04,22.30
2015,06,27,08,05,22.40
2015,06,27,08,06,22.40
2015,06,27,08,07,22.50
2015,06,27,08,08,22.60
2015,06,27,08,09,22.70
2015,06,27,08,10,22.80
2015,06,27,08,11,22.80
2015,06,27,08,12,22.80
2015,06,27,08,13,22.80
2015,06,27,08,14,22.80
2015,06,27,08,15,22.90
2015,06,27,08,16,23.00
2015,06,27,08,17,23.10
2015,06,27,08,18,23.20
2015,06,27,08,19,23.30
2015,06,27,08,20,23.30
2015,06,27,08,21,23.50
2015,06,27,08,22,23.60
2015,06,27,08,23,23.70
2015,06,27,08,24,23.80
2015,06,27,08,25,23.90
2015,06,27,08,26,24.00
2015,06,27,08,27,24.10
2015,06,27,08,28,24.10
2015,06,27,08,29,24.20
2015,06,27,08,30,24.20
2015,06,27,08,31,24.30
2015,06,27,08,32,24.40
2015,06,27,08,33,24.40
2015,06,27,08,34,24.40
2015,06,27,08,35,24.40
2015,06,27,08,36,24.40
2015,06,27,08,37,24.40
2015,06,27,08,38,24.40
2015,06,27,08,39,24.40
2015,06,27,08,40,24.30
2015,06,27,08,41,24.20
2015,06,27,08,42,24.00
2015,06,27,08,43,23.80
2015,06,27,08,44,23.60
2015,06,27,08,45,23.50
2015,06,27,08,46,23.40
2015,06,27,08,47,23.30
2015,06,27,08,48,23.30
2015,06,27,08,49,23.30
2015,06,27,08,50,23.20
2015,06,27,08,51,23.20
2015,06,27,08,52,23.20
2015,06,27,08,53,23.20
2015,06,27,08,54,23.20
2015,06,27,08,55,23.10
2015,06,27,08,56,23.00
2015,06,27,08,57,22.80
2015,06,27,08,58,22.70
2015,06,27,08,59,22.60
2015,06,27,09,00,22.60
2015,06,27,09,01,22.60
2015,06,27,09,02,22.60
2015,06,27,09,03,22.60
2015,06,27,09,04,22.70
2015,06,27,09,05,22.80
2015,06,27,09,06,22.90
2015,06,27,09,07,23.00
2015,06,27,09,08,23.20
2015,06,27,09,09,23.30
2015,06,27,09,10,23.30
2015,06,27,09,11,23.40
2015,06,27,09,12,23.40
2015,06,27,09,13,23.40
2015,06,27,09,14,23.40
2015,06,27,09,15,23.30
2015,06,27,09,16,23.40
2015,06,27,09,17,23.40
2015,06,27,09,18,23.50
2015,06,27,09,19,23.60
2015,06,27,09,20,23.80
2015,06,27,09,21,23.90
2015,06,27,09,22,24.10
2015,06,27,09,23,24.20
2015,06,27,09,24,24.40
2015,06,27,09,25,24.40
2015,06,27,09,26,24.50
2015,06,27,09,27,24.60
2015,06,27,09,28,24.70
2015,06,27,09,29,24.80
2015,06,27,09,30,24.80
2015,06,27,09,31,24.90
2015,06,27,09,32,24.90
2015,06,27,09,33,24.90
2015,06,27,09,34,24.90
2015,06,27,09,35,24.80
2015,06,27,09,36,24.80
2015,06,27,09,37,24.80
2015,06,27,09,38,24.80
2015,06,27,09,39,24.90
2015,06,27,09,40,24.90
2015,06,27,09,41,24.80
2015,06,27,09,42,24.60
2015,06,27,09,43,24.40
2015,06,27,09,44,24.20
2015,06,27,09,45,24.10
2015,06,27,09,46,24.00
2015,06,27,09,47,23.80
2015,06,27,09,48,23.70
2015,06,27,09,49,23.50
2015,06,27,09,50,23.40
2015,06,27,09,51,23.30
2015,06,27,09,52,23.30
2015,06,27,09,53,23.30
2015,06,27,09,54,23.20
2015,06,27,09,55,23.10
2015,06,27,09,56,23.10
2015,06,27,09,57,23.10
2015,06,27,09,58,23.10
2015,06,27,09,59,23.10
2015,06,27,10,00,23.20
2015,06,27,10,01,23.30
2015,06,27,10,02,23.40
2015,06,27,10,03,23.50
2015,06,27,10,04,23.60
2015,06,27,10,05,23.60
2015,06,27,10,06,23.70
2015,06,27,10,07,23.80
2015,06,27,10,08,23.80
2015,06,27,10,09,23.80
2015,06,27,10,10,23.80
2015,06,27,10,11,23.90
2015,06,27,10,12,24.00
2015,06,27,10,13,24.10
2015,06,27,10,14,24.20
2015,06,27,10,15,24.20
2015,06,27,10,16,24.30
2015,06,27,10,17,24.50
2015,06,27,10,18,24.50
2015,06,27,10,19,24.60
2015,06,27,10,20,24.50
2015,06,27,10,21,24.40
2015,06,27,10,22,24.40
2015,06,27,10,23,24.30
2015,06,27,10,24,24.40
2015,06,27,10,25,24.50
2015,06,27,10,26,24.60
2015,06,27,10,27,24.80
2015,06,27,10,28,24.90
2015,06,27,10,29,25.10
2015,06,27,10,30,25.20
2015,06,27,10,31,25.30
2015,06,27,10,32,25.30
2015,06,27,10,33,25.40
2015,06,27,10,34,25.40
2015,06,27,10,35,25.50
2015,06,27,10,36,25.50
2015,06,27,10,37,25.70
2015,06,27,10,38,25.80
2015,06,27,10,39,25.90
2015,06,27,10,40,25.80
2015,06,27,10,41,25.90
2015,06,27,10,42,25.90
2015,06,27,10,43,25.80
2015,06,27,10,44,25.70
2015,06,27,10,45,25.70
2015,06,27,10,46,25.60
2015,06,27,10,47,25.50
2015,06,27,10,48,25.60
2015,06,27,10,49,25.70
2015,06,27,10,50,25.90
2015,06,27,10,51,26.00
2015,06,27,10,52,26.10
2015,06,27,10,53,26.20
2015,06,27,10,54,26.30
2015,06,27,10,55,26.40
2015,06,27,10,56,26.40
2015,06,27,10,57,26.50
2015,06,27,10,58,26.50
2015,06,27,10,59,26.60
2015,06,27,11,00,26.60
2015,06,27,11,01,26.60
2015,06,27,11,02,26.60
2015,06,27,11,03,26.50
2015,06,27,11,04,26.50
2015,06,27,11,05,26.50
2015,06,27,11,06,26.50
2015,06,27,11,07,26.50
2015,06,27,11,08,26.50
2015,06,27,11,09,26.50
2015,06,27,11,10,26.50
2015,06,27,11,11,26.60
2015,06,27,11,12,26.70
2015,06,27,11,13,26.70
2015,06,27,11,14,26.80
2015,06,27,11,15,26.90
2015,06,27,11,16,26.90
2015,06,27,11,17,26.90
2015,06,27,11,18,26.90
2015,06,27,11,19,26.80
2015,06,27,11,20,26.80
2015,06,27,11,21,26.70
2015,06,27,11,22,26.70
2015,06,27,11,23,26.70
2015,06,27,11,24,26.70
2015,06,27,11,25,26.70
2015,06,27,11,26,26.80
2015,06,27,11,27,26.80
2015,06,27,11,28,26.80
2015,06,27,11,29,26.90
2015,06,27,11,30,27.00
2015,06,27,11,31,27.10
2015,06,27,11,32,27.20
2015,06,27,11,33,27.20
2015,06,27,11,34,27.30
2015,06,27,11,35,27.30
2015,06,27,11,36,27.40
2015,06,27,11,37,27.40
2015,06,27,11,38,27.50
2015,06,27,11,39,27.60
2015,06,27,11,40,27.60
2015,06,27,11,41,27.70
2015,06,27,11,42,27.80
2015,06,27,11,43,27.80
2015,06,27,11,44,27.90
2015,06,27,11,45,27.80
2015,06,27,11,46,27.90
2015,06,27,11,47,27.80
2015,06,27,11,48,27.80
2015,06,27,11,49,27.70
2015,06,27,11,50,27.50
2015,06,27,11,51,27.40
2015,06,27,11,52,27.40
2015,06,27,11,53,27.40
2015,06,27,11,54,27.50
2015,06,27,11,55,27.70
2015,06,27,11,56,27.80
2015,06,27,11,57,27.90
2015,06,27,11,58,27.90
2015,06,27,11,59,27.90
2015,06,27,12,00,27.90
2015,06,27,12,01,27.90
2015,06,27,12,02,27.90
2015,06,27,12,03,27.90
2015,06,27,12,04,27.90
2015,06,27,12,05,27.80
2015,06,27,12,06,27.80
2015,06,27,12,07,27.80
2015,06,27,12,08,27.70
2015,06,27,12,09,27.70
2015,06,27,12,10,27.70
2015,06,27,12,11,27.70
2015,06,27,12,12,27.90
2015,06,27,12,13,28.00
2015,06,27,12,14,28.10
2015,06,27,12,15,28.30
2015,06,27,12,16,28.30
2015,06,27,12,17,28.40
2015,06,27,12,18,28.40
2015,06,27,12,19,28.40
2015,06,27,12,20,28.40
2015,06,27,12,21,28.40
2015,06,27,12,22,28.40
2015,06,27,12,23,28.50
2015,06,27,12,24,28.60
2015,06,27,12,25,28.50
2015,06,27,12,26,28.50
2015,06,27,12,27,28.50
2015,06,27,12,28,28.50
2015,06,27,12,29,28.60
2015,06,27,12,30,28.70
2015,06,27,12,31,28.80
2015,06,27,12,32,28.80
2015,06,27,12,33,28.90
2015,06,27,12,34,28.90
2015,06,27,12,35,28.90
2015,06,27,12,36,29.00
2015,06,27,12,37,29.10
2015,06,27,12,38,29.10
2015,06,27,12,39,29.10
2015,06,27,12,40,29.10
2015,06,27,12,41,29.20
2015,06,27,12,42,29.20
2015,06,27,12,43,29.30
2015,06,27,12,44,29.30
2015,06,27,12,45,29.30
2015,06,27,12,46,29.20
2015,06,27,12,47,29.20
2015,06,27,12,48,29.20
2015,06,27,12,49,29.10
2015,06,27,12,50,29.00
2015,06,27,12,51,29.00
2015,06,27,12,52,28.90
2015,06,27,12,53,28.90
2015,06,27,12,54,28.90
2015,06,27,12,55,28.90
2015,06,27,12,56,28.90
2015,06,27,12,57,28.90
2015,06,27,12,58,28.90
2015,06,27,12,59,28.90
2015,06,27,13,00,29.00
2015,06,27,13,01,29.00
2015,06,27,13,02,29.10
2015,06,27,13,03,29.20
2015,06,27,13,04,29.30
2015,06,27,13,05,29.20
2015,06,27,13,06,29.20
2015,06,27,13,07,29.10
2015,06,27,13,08,29.10
2015,06,27,13,09,29.00
2015,06,27,13,10,29.00
2015,06,27,13,11,29.00
2015,06,27,13,12,29.00
2015,06,27,13,13,29.10
2015,06,27,13,14,29.30
2015,06,27,13,15,29.40
2015,06,27,13,16,29.50
2015,06,27,13,17,29.40
2015,06,27,13,18,29.50
2015,06,27,13,19,29.60
2015,06,27,13,20,29.70
2015,06,27,13,21,29.80
2015,06,27,13,22,29.80
2015,06,27,13,23,29.90
2015,06,27,13,24,30.10
2015,06,27,13,25,30.20
2015,06,27,13,26,30.30
2015,06,27,13,27,30.40
2015,06,27,13,28,30.40
2015,06,27,13,29,30.50
2015,06,27,13,30,30.50
2015,06,27,13,31,30.50
2015,06,27,13,32,30.40
2015,06,27,13,33,30.40
2015,06,27,13,34,30.30
2015,06,27,13,35,30.30
2015,06,27,13,36,30.30
2015,06,27,13,37,30.20
2015,06,27,13,38,30.20
2015,06,27,13,39,30.20
2015,06,27,13,40,30.20
2015,06,27,13,41,30.20
2015,06,27,13,42,30.30
2015,06,27,13,43,30.40
2015,06,27,13,44,30.30
2015,06,27,13,45,30.30
2015,06,27,13,46,30.30
2015,06,27,13,47,30.20
2015,06,27,13,48,30.20
2015,06,27,13,49,30.10
2015,06,27,13,50,30.20
2015,06,27,13,51,30.20
2015,06,27,13,52,30.30
2015,06,27,13,53,30.30
2015,06,27,13,54,30.20
2015,06,27,13,55,30.20
2015,06,27,13,56,30.30
2015,06,27,13,57,30.30
2015,06,27,13,58,30.40
2015,06,27,13,59,30.50
2015,06,27,14,00,30.60
2015,06,27,14,01,30.60
2015,06,27,14,02,30.70
2015,06,27,14,03,30.80
2015,06,27,14,04,30.80
2015,06,27,14,05,30.80
2015,06,27,14,06,30.80
2015,06,27,14,07,30.80
2015,06,27,14,08,30.80
2015,06,27,14,09,30.80
2015,06,27,14,10,30.80
2015,06,27,14,11,30.80
2015,06,27,14,12,30.80
2015,06,27,14,13,30.80
2015,06,27,14,14,30.70
2015,06,27,14,15,30.70
2015,06,27,14,16,30.70
2015,06,27,14,17,30.70
2015,06,27,14,18,30.80
2015,06,27,14,19,30.80
2015,06,27,14,20,30.80
2015,06,27,14,21,30.80
2015,06,27,14,22,30.80
2015,06,27,14,23,30.80
2015,06,27,14,24,30.80
2015,06,27,14,25,30.80
2015,06,27,14,26,30.90
2015,06,27,14,27,30.90
2015,06,27,14,28,30.90
2015,06,27,14,29,30.90
2015,06,27,14,30,31.00
2015,06,27,14,31,31.00
2015,06,27,14,32,31.00
2015,06,27,14,33,31.00
2015,06,27,14,34,30.90
2015,06,27,14,35,30.80
2015,06,27,14,36,30.80
2015,06,27,14,37,30.80
2015,06,27,14,38,30.80
2015,06,27,14,39,30.70
2015,06,27,14,40,30.60
2015,06,27,14,41,30.40
2015,06,27,14,42,30.30
2015,06,27,14,43,30.30
2015,06,27,14,44,30.30
2015,06,27,14,45,30.30
2015,06,27,14,46,30.30
2015,06,27,14,47,30.30
2015,06,27,14,48,30.30
2015,06,27,14,49,30.30
2015,06,27,14,50,30.40
2015,06,27,14,51,30.40
2015,06,27,14,52,30.40
2015,06,27,14,53,30.50
2015,06,27,14,54,30.60
2015,06,27,14,55,30.60
2015,06,27,14,56,30.70
2015,06,27,14,57,30.80
2015,06,27,14,58,30.90
2015,06,27,14,59,30.90
2015,06,27,15,00,31.00
2015,06,27,15,01,30.90
2015,06,27,15,02,30.90
2015,06,27,15,03,30.90
2015,06,27,15,04,30.90
2015,06,27,15,05,30.90
2015,06,27,15,06,30.80
2015,06,27,15,07,30.80
2015,06,27,15,08,30.80
2015,06,27,15,09,30.70
2015,06,27,15,10,30.70
2015,06,27,15,11,30.60
2015,06,27,15,12,30.60
2015,06,27,15,13,30.40
2015,06,27,15,14,30.40
2015,06,27,15,15,30.40
2015,06,27,15,16,30.40
2015,06,27,15,17,30.40
2015,06,27,15,18,30.50
2015,06,27,15,19,30.50
2015,06,27,15,20,30.50
2015,06,27,15,21,30.60
2015,06,27,15,22,30.70
2015,06,27,15,23,30.70
2015,06,27,15,24,30.80
2015,06,27,15,25,30.70
2015,06,27,15,26,30.70
2015,06,27,15,27,30.70
2015,06,27,15,28,30.70
2015,06,27,15,29,30.80
2015,06,27,15,30,30.80
2015,06,27,15,31,30.70
2015,06,27,15,32,30.60
2015,06,27,15,33,30.40
2015,06,27,15,34,30.30
2015,06,27,15,35,30.20
2015,06,27,15,36,30.20
2015,06,27,15,37,30.30
2015,06,27,15,38,30.30
2015,06,27,15,39,30.30
2015,06,27,15,40,30.30
2015,06,27,15,41,30.30
2015,06,27,15,42,30.20
2015,06,27,15,43,30.20
2015,06,27,15,44,30.30
2015,06,27,15,45,30.30
2015,06,27,15,46,30.30
2015,06,27,15,47,30.30
2015,06,27,15,48,30.20
2015,06,27,15,49,30.10
2015,06,27,15,50,30.00
2015,06,27,15,51,29.90
2015,06,27,15,52,30.00
2015,06,27,15,53,30.10
2015,06,27,15,54,30.00
2015,06,27,15,55,30.00
2015,06,27,15,56,30.10
2015,06,27,15,57,30.10
2015,06,27,15,58,30.20
2015,06,27,15,59,30.20
2015,06,27,16,00,30.10
2015,06,27,16,01,30.00
2015,06,27,16,02,30.00
2015,06,27,16,03,30.00
2015,06,27,16,04,30.00
2015,06,27,16,05,29.90
2015,06,27,16,06,29.90
2015,06,27,16,07,29.80
2015,06,27,16,08,29.80
2015,06,27,16,09,29.70
2015,06,27,16,10,29.60
2015,06,27,16,11,29.60
2015,06,27,16,12,29.60
2015,06,27,16,13,29.60
2015,06,27,16,14,29.60
2015,06,27,16,15,29.60
2015,06,27,16,16,29.60
2015,06,27,16,17,29.60
2015,06,27,16,18,29.60
2015,06,27,16,19,29.70
2015,06,27,16,20,29.80
2015,06,27,16,21,29.70
2015,06,27,16,22,29.60
2015,06,27,16,23,29.60
2015,06,27,16,24,29.60
2015,06,27,16,25,29.60
2015,06,27,16,26,29.60
2015,06,27,16,27,29.60
2015,06,27,16,28,29.60
2015,06,27,16,29,29.60
2015,06,27,16,30,29.60
2015,06,27,16,31,29.70
2015,06,27,16,32,29.70
2015,06,27,16,33,29.80
2015,06,27,16,34,29.80
2015,06,27,16,35,29.70
2015,06,27,16,36,29.70
2015,06,27,16,37,29.80
2015,06,27,16,38,29.80
2015,06,27,16,39,29.80
2015,06,27,16,40,29.90
2015,06,27,16,41,29.90
2015,06,27,16,42,29.90
2015,06,27,16,43,29.90
2015,06,27,16,44,29.90
2015,06,27,16,45,30.00
2015,06,27,16,46,30.10
2015,06,27,16,47,30.20
2015,06,27,16,48,30.20
2015,06,27,16,49,30.30
2015,06,27,16,50,30.40
2015,06,27,16,51,30.50
2015,06,27,16,52,30.50
2015,06,27,16,53,30.50
2015,06,27,16,54,30.40
2015,06,27,16,55,30.30
2015,06,27,16,56,30.20
2015,06,27,16,57,30.10
2015,06,27,16,58,30.10
2015,06,27,16,59,30.00
2015,06,27,17,00,29.90
2015,06,27,17,01,29.90
2015,06,27,17,02,29.80
2015,06,27,17,03,29.80
2015,06,27,17,04,29.70
2015,06,27,17,05,29.70
2015,06,27,17,06,29.70
2015,06,27,17,07,29.70
2015,06,27,17,08,29.80
2015,06,27,17,09,29.80
2015,06,27,17,10,29.80
2015,06,27,17,11,29.80
2015,06,27,17,12,29.80
2015,06,27,17,13,29.90
2015,06,27,17,14,29.90
2015,06,27,17,15,29.90
2015,06,27,17,16,30.00
2015,06,27,17,17,30.00
2015,06,27,17,18,29.90
2015,06,27,17,19,29.90
2015,06,27,17,20,29.90
2015,06,27,17,21,29.90
2015,06,27,17,22,29.90